Terminal Aerodrome Forecast
Issued by NWS Blacksburg, VA

Home | Current Version | Previous Version | Text Only | Print | Product List | Glossary On
Versions: 1 2 3 4 5 6 7 8 9 10 11 12 13 14 15 16 17 18 19 20 21 22 23 24 25 26
000
FTUS41 KRNK 220147 AAA
TAFLYH
TAF AMD
KLYH 220147Z 2202/2224 29006KT P6SM VCSH SCT050 BKN100
     FM220800 32005KT P6SM SCT050 BKN100
     FM221200 32010G18KT P6SM BKN080
     FM222200 32006KT P6SM SCT080=

USA.gov is the U.S. government's official web portal to all federal, state and local government web resources and services.